SWA2890 KDCA-KBNA

Flight info

Callsign SWA2890
Flight time N/A
Altitude 40000
Route REBLL5 OTTTO Q80 DEWAK GROAT PASLY5
Aircraft B38M/M-SDE1FGHILORVWXY/HB1

Departure

Time 2026-04-30 22:34
Airport Ronald Reagan Washington National Airport (KDCA)

Arrival

Time N/A
Airport Nashville International Airport (KBNA)
Time Latitude Longitude Altitude Speed Heading
2026-04-30 22:01 38.84646 -77.04203 27 ft 0 kts 332°
2026-04-30 22:23 38.84634 -77.04195 27 ft 4 kts 333°
2026-04-30 22:23 38.84612 -77.04180 27 ft 2 kts 333°
2026-04-30 22:23 38.84593 -77.04165 27 ft 4 kts 307°
2026-04-30 22:24 38.84586 -77.04135 27 ft 4 kts 261°
2026-04-30 22:24 38.84594 -77.04105 27 ft 4 kts 228°
2026-04-30 22:24 38.84611 -77.04097 27 ft 4 kts 157°
2026-04-30 22:24 38.84635 -77.04110 27 ft 4 kts 156°
2026-04-30 22:25 38.84658 -77.04123 27 ft 1 kts 156°
2026-04-30 22:25 38.84678 -77.04134 27 ft 2 kts 156°
2026-04-30 22:25 38.84679 -77.04135 27 ft 0 kts 156°
2026-04-30 22:27 38.84659 -77.04122 27 ft 7 kts 153°
2026-04-30 22:28 38.84509 -77.04003 27 ft 19 kts 172°
2026-04-30 22:28 38.84383 -77.03978 29 ft 21 kts 161°
2026-04-30 22:29 38.84287 -77.03795 27 ft 0 kts 117°
2026-04-30 22:30 38.84262 -77.03727 26 ft 0 kts 110°
2026-04-30 22:31 38.84351 -77.03694 29 ft 3 kts 354°
2026-04-30 22:32 38.84352 -77.03694 26 ft 0 kts 354°
2026-04-30 22:33 38.84798 -77.03743 27 ft 103 kts 355°
2026-04-30 22:33 38.87048 -77.04009 382 ft 210 kts 340°
2026-04-30 22:34 38.90012 -77.07710 1294 ft 184 kts 306°
2026-04-30 22:35 38.91401 -77.10382 2026 ft 184 kts 319°
2026-04-30 22:36 38.96381 -77.14751 4122 ft 243 kts 300°
2026-04-30 22:36 38.96920 -77.16794 5053 ft 245 kts 283°
2026-04-30 22:37 38.97966 -77.23349 7383 ft 254 kts 281°
2026-04-30 22:37 38.98307 -77.25588 8142 ft 257 kts 281°
2026-04-30 22:37 38.97747 -77.30075 9656 ft 264 kts 251°
2026-04-30 22:38 38.96363 -77.34613 10626 ft 287 kts 250°
2026-04-30 22:38 38.94777 -77.39646 11273 ft 318 kts 250°
2026-04-30 22:39 38.93939 -77.42273 12057 ft 317 kts 250°
2026-04-30 22:39 38.91393 -77.50214 14259 ft 323 kts 250°
2026-04-30 22:40 38.88871 -77.58310 16324 ft 329 kts 258°
2026-04-30 22:41 38.87614 -77.67021 18320 ft 336 kts 260°
2026-04-30 22:41 38.86764 -77.72959 19428 ft 341 kts 260°
2026-04-30 22:42 38.85027 -77.85070 21617 ft 350 kts 261°
2026-04-30 22:43 38.84632 -77.91263 22682 ft 353 kts 271°
2026-04-30 22:43 38.84797 -77.97652 23677 ft 358 kts 271°
2026-04-30 22:44 38.84977 -78.04049 24474 ft 364 kts 271°
2026-04-30 22:45 38.85346 -78.17174 26058 ft 373 kts 271°
2026-04-30 22:45 38.85403 -78.23868 26807 ft 377 kts 270°
2026-04-30 22:46 38.85385 -78.30614 27563 ft 381 kts 270°
2026-04-30 22:47 38.84240 -78.44239 28868 ft 391 kts 260°
2026-04-30 22:47 38.83125 -78.51105 29551 ft 394 kts 260°
2026-04-30 22:48 38.81986 -78.58025 30117 ft 399 kts 260°
2026-04-30 22:49 38.80264 -78.68430 31195 ft 397 kts 260°
2026-04-30 22:49 38.78564 -78.78651 32402 ft 390 kts 261°
2026-04-30 22:50 38.76303 -78.92145 33898 ft 385 kts 261°